TimeCST,TemperatureF,Dew PointF,Humidity,Sea Level PressureIn,VisibilityMPH,Wind Direction,Wind SpeedMPH,Gust SpeedMPH,PrecipitationIn,Events,Conditions,WindDirDegrees,DateUTC
12:01 AM,37.4,35.6,93,29.68,6.0,WNW,9.2,-,N/A,,Overcast,290,2012-12-16 06:01:00
12:09 AM,37.4,35.6,93,29.68,6.0,WNW,8.1,-,N/A,,Overcast,290,2012-12-16 06:09:00
12:53 AM,37.9,35.1,89,29.70,6.0,West,9.2,-,N/A,,Overcast,280,2012-12-16 06:53:00
1:22 AM,37.4,33.8,87,29.69,6.0,WNW,11.5,-,N/A,,Overcast,290,2012-12-16 07:22:00
1:53 AM,37.0,33.1,86,29.71,8.0,WNW,11.5,-,N/A,,Overcast,300,2012-12-16 07:53:00
2:05 AM,35.6,33.8,93,29.70,7.0,WNW,10.4,-,N/A,,Overcast,300,2012-12-16 08:05:00
2:53 AM,36.0,32.0,86,29.72,8.0,NW,8.1,-,N/A,,Overcast,320,2012-12-16 08:53:00
3:44 AM,35.6,32.0,87,29.70,8.0,NW,8.1,-,N/A,,Overcast,310,2012-12-16 09:44:00
3:53 AM,36.0,32.0,86,29.73,8.0,WNW,9.2,-,N/A,,Overcast,300,2012-12-16 09:53:00
4:53 AM,36.0,32.0,86,29.74,9.0,NW,9.2,-,N/A,,Overcast,310,2012-12-16 10:53:00
5:53 AM,36.0,32.0,86,29.75,7.0,WNW,6.9,-,N/A,,Overcast,300,2012-12-16 11:53:00
6:53 AM,35.1,32.0,89,29.75,6.0,WNW,8.1,-,N/A,,Overcast,300,2012-12-16 12:53:00
7:53 AM,35.1,30.9,85,29.76,4.0,NNW,9.2,-,N/A,,Overcast,330,2012-12-16 13:53:00
8:53 AM,35.1,32.0,89,29.77,3.0,NW,5.8,-,N/A,,Overcast,320,2012-12-16 14:53:00
9:53 AM,35.1,32.0,89,29.78,4.0,North,4.6,-,N/A,,Overcast,360,2012-12-16 15:53:00
10:53 AM,36.0,32.0,86,29.78,4.0,North,6.9,-,N/A,,Overcast,360,2012-12-16 16:53:00
11:53 AM,35.1,32.0,89,29.75,3.0,North,3.5,-,N/A,,Overcast,10,2012-12-16 17:53:00
12:53 PM,35.1,32.0,89,29.72,3.0,North,5.8,-,N/A,,Overcast,350,2012-12-16 18:53:00
1:53 PM,35.1,32.0,89,29.72,3.0,NNW,4.6,-,N/A,,Overcast,340,2012-12-16 19:53:00
2:53 PM,35.1,30.9,85,29.73,5.0,North,6.9,-,N/A,,Overcast,360,2012-12-16 20:53:00
3:42 PM,35.6,30.2,81,29.71,6.0,North,5.8,-,N/A,,Haze,360,2012-12-16 21:42:00
3:53 PM,36.0,30.0,79,29.74,6.0,NNE,5.8,-,N/A,,Haze,30,2012-12-16 21:53:00
4:53 PM,36.0,30.0,79,29.77,6.0,Calm,Calm,-,N/A,,Haze,0,2012-12-16 22:53:00
5:04 PM,35.6,30.2,81,29.74,7.0,Calm,Calm,-,N/A,,Overcast,0,2012-12-16 23:04:00
5:53 PM,35.1,30.0,82,29.76,7.0,Calm,Calm,-,N/A,,Overcast,0,2012-12-16 23:53:00
6:34 PM,35.6,30.2,81,29.75,7.0,Calm,Calm,-,N/A,,Overcast,0,2012-12-17 00:34:00
6:53 PM,35.1,30.9,85,29.78,7.0,Calm,Calm,-,N/A,,Overcast,0,2012-12-17 00:53:00
7:53 PM,35.1,30.9,85,29.80,6.0,Calm,Calm,-,N/A,,Overcast,0,2012-12-17 01:53:00
8:05 PM,35.6,30.2,81,29.78,6.0,Calm,Calm,-,N/A,,Overcast,0,2012-12-17 02:05:00
8:53 PM,35.1,30.0,82,29.81,6.0,Calm,Calm,-,N/A,,Haze,0,2012-12-17 02:53:00
9:11 PM,33.8,30.2,87,29.76,4.0,NNE,4.6,-,N/A,,Mostly Cloudy,20,2012-12-17 03:11:00
9:53 PM,33.1,28.9,85,29.81,5.0,Calm,Calm,-,N/A,,Scattered Clouds,0,2012-12-17 03:53:00
10:53 PM,30.9,28.9,92,29.81,4.0,North,5.8,-,N/A,,Overcast,350,2012-12-17 04:53:00
11:53 PM,30.0,28.0,92,29.81,6.0,North,5.8,-,N/A,,Overcast,350,2012-12-17 05:53:00